Location: Newark
(41.5333°N, 14.5500°E)
Time: 12:48:23
(UTC+00:00)

X-37B - Pass Details

Date: 12 March 2021
Orbit: 380 x 394 km, 45.0° (Epoch: 07 April)

Event Time Altitude Azimuth Distance (km) Brightness Sun altitude
Rises 18:17:03 0° 236° (SW) 2,261 5.2 -14.2°
Reaches altitude 10° 18:19:08 10° 231° (SW) 1,412 4.0 -14.6°
Maximum altitude 18:22:14 53° 154° (SSE) 482 0.8 -15.2°
Enters shadow 18:23:06 38° 101° (E) 607 1.0 -15.4°
